ZHONGXING-1E

Last updated on Sun Oct 26 2025 00:02:59 GMT+0000 (Coordinated Universal Time)

1 53813U 22112A 25297.78600400 -.00000138 00000+0 00000+0 0 9999 2 53813 0.0287 321.8200 0004487 295.2373 140.7856 1.00272457 11482
UTC large
Height (km)
Speed (km/s)
/
Latitude / Longitude
Inclination (degrees)
Orbital Period (minutes)
Azimuth
Elevation
Range (km)
Doppler Factor

Next 0 passes for location: London (51.5072 / 0.1276)

Sorry there are no passes over London.